ARIANE 2 DEB, 28567

Orbit data source: Space-Track

ARIANE 2 DEB, 28567 is space debris in HEO originally from a launch on Fri, 27 Jan 1989 UTC launched from the French Guiana (FRGUI). Debris objects in space refer to the collection of defunct objects orbiting the Earth. Examples of debris include non-operational satellites, rocket bodies, and fragments generated from explosions, collisions, or faulty payload assembly.

Loading next visibility...
Identifier
28567, 1989-006AJ
Orbit
HEO
Country
Flag of FRFR
Related business
Manufacturer
EADS/LV
Mission
Spacecraft
Bus & Motor
Unknown
Mass
Unknown
Launch date (UTC)
1989-01-27 (37 years ago)
Launch vehicle
Unknown
Launch site
French Guiana (FRGUI)
Object type
Payload
Rocket body
Debris
Shape & HBR
Unknown shape, 1.1 m
Radar Cross Section
Medium (>0.1 m² and <1 m²)

Expand to show TLE details & history
Last TLE update: 23 hours ago

TLE from 23 hours ago
0 ARIANE 2 DEB
1 28567U 89006AJ  25349.22892665 -.00000023  00000-0 -11495-3 0  9994
2 28567   8.0809  38.0591 7088589 158.9327 258.5413  2.38005610116103
Epoch: 2025-12-15T05:29Z
TLE epoch observation values (Epoch: 2025-12-15T05:29:39.262Z)
Latitude
0.00015°
Longitude
-128.57064°
Altitude
28,511.571 km
Speed
2.455 km/s
True Right ascension
02h 31m 53s
True Declination
0° 00' 01"
Sunlit
Object was in daylight at epoch
Visualization orbit readout
Latitude
Unknown
Longitude
Unknown
Altitude
Unknown
Speed
Unknown
Apparent Right ascension
Unknown
Apparent Declination
Unknown
Sunlit
N/A
Visualization observer readout
Local Sidereal Time
03:10:34
Azimuth
Unknown
Elevation
Unknown
Doppler factor
Unknown
Orbital elements
Apogee altitude
34,123.979 km
Perigee altitude
522.275 km
Semi-major axis
23,701.264 km
Eccentricity
0.70886
Inclination
8.0809°
RAAN
38.0591°
Arg. of periapsis
158.9327°
True anomaly
200.94305°
Mean anomaly
258.5413°
Eccentric anomaly
228.24352°
Mean motion
0.59482 °/min
Orbital period
605.22 mins
BSTAR
-0.00011495
Loading maneuver chart data...
Computing Atmospheric mass density...
Loading historical data...
Loading historical data...
Loading historical data...
Loading historical data...
Loading historical data...
Loading historical data...
Loading historical data...

Documentation

Showing up to 5 results
|